User: anonymous   Login
Location: Weston
(26.1283°N, 80.4075°W)
Time: 04:34:45
(UTC-04:00)
Language:

H-2A R/B - Orbit

View from above orbital plane
View from above orbital plane
View from above satellite
View from above satellite

Ground track
Ground track

The orbit data is extracted from the following two-line orbital elements,

1 26899U 01038B   16236.24234980  .00000933  00000-0  67802-3 0  9997
2 26899  28.0159 186.4399 7105015 350.5500   1.0011  2.47205582129132
Epoch (UTC): 23 August 2016 05:48:59
Eccentricity: 0.7105015
inclination: 28.0159°
perigee height: 310 km
apogee height: 33142 km
right ascension of ascending node: 186.4399°
argument of perigee: 350.5500°
revolutions per day: 2.47205582
mean anomaly at epoch: 1.0011°
orbit number at epoch: 12913

The dashed part of the orbit path shows where the satellite is in the earth's shadow,  

DLR